Regional Weather Roundup
Issued by NWS Charleston, SC

Current Version | Previous Version | Graphics & Text | Print | Product List | Glossary On
Versions: 1 2 3 4 5 6 7 8 9 10 11 12 13 14 15 16 17 18 19 20 21 22 23 24 25 26 27 28 29 30 31 32 33 34 35 36 37 38 39 40 41 42 43 44 45 46 47 48 49 50
000 ASUS42 KCHS 250625 RWRCHS REGIONAL WEATHER ROUNDUP NATIONAL WEATHER SERVICE CHARLESTON SC 100 AM EST THU DEC 25 2014 NOTE: "FAIR" INDICATES FEW OR NO CLOUDS BELOW 12,000 FEET WITH NO SIGNIFICANT WEATHER AND/OR OBSTRUCTIONS TO VISIBILITY. NOT ALL STATIONS ARE QUALITY CONTROLLED BY THE NATIONAL WEATHER SERVICE. USE DATA WITH CAUTION...ESPECIALLY DEWPOINT OBSERVATIONS. SCZ027-030-031-034>040-042>050-250700- ...SOUTHEAST SOUTH CAROLINA... CITY SKY/WX TMP DP RH WIND PRES REMARKS N CHARLESTON CLOUDY 65 63 93 SW6 29.79F 6HR MIN TEMP: 63; 6HR MAX TEMP: 66; 6HR PCP: TRACE; WATERFRONT PRK N/A 63 N/A N/A SW5 N/A MOUNT PLEASANT MOCLDY 64 64 100 SW7 29.80F PINOPOLIS N/A 66 64 94 SW7 29.72 MONCKS CORNER CLOUDY 66 63 88 SW7 29.78S SUMMERVILLE CLOUDY 64 63 94 W10 29.81R BEAUFORT MCAS CLOUDY 64 60 87 W13 29.85R 6HR MIN TEMP: 64; 6HR MAX TEMP: 67; 6HR PCP: 0.01; BEAUFORT ARPT CLOUDY 63 59 88 W18G30 29.85R HILTON HEAD IS CLOUDY 63 63 100 W9G17 29.86R WALTERBORO CLOUDY 63 N/A N/A W12 29.83R ALLENDALE CLOUDY 57 52 82 W8G14 29.86R ...SOUTHERN MIDLANDS AND PEE DEE... CITY SKY/WX TMP DP RH WIND PRES REMARKS GEORGETOWN NOT AVBL KINGSTREE NOT AVBL ORANGEBURG LGT RAIN 60 54 80 W12 29.81R 6HR MIN TEMP: 60; 6HR MAX TEMP: 66; 6HR PCP: 0.05; BARNWELL CLOUDY 55 48 76 W14G21 29.87R AIKEN FAIR 50 45 81 W10 29.89R MANNING CLOUDY 66 N/A N/A W6 29.77S COLUMBIA CLOUDY 55 46 71 W14G23 29.82R 6HR MIN TEMP: 55; 6HR MAX TEMP: 67; 6HR PCP: TRACE; SUMTER CLOUDY 59 55 88 W9 29.76S 6HR PCP: 0.05; FLORENCE LGT RAIN 66 62 87 SW20G26 29.76R 6HR MIN TEMP: 65; 6HR MAX TEMP: 67; 6HR PCP: TRACE; MYRTLE BEACH CLOUDY 66 63 88 SW9 29.80R N MYRTLE BEACH CLOUDY 59 58 96 SW8 29.79R 6HR MIN TEMP: 59; 6HR MAX TEMP: 66; 6HR PCP: TRACE; $$ GAZ063-065-086>088-099>101-113>116-118-119-134>141-150-250700- ...SOUTHEAST GEORGIA... CITY SKY/WX TMP DP RH WIND PRES REMARKS SAVANNAH ARPT LGT RAIN 59 52 77 W16G24 29.87R 6HR MIN TEMP: 60; 6HR MAX TEMP: 67; 6HR PCP: 0.01; HUNTER AAF CLOUDY 61 60 97 W13 29.85R 6HR MIN TEMP: 61; 6HR MAX TEMP: 67; 6HR PCP: 0.01; FORT STEWART CLOUDY 58 52 80 W14G20 29.88S 6HR MIN TEMP: 58; 6HR MAX TEMP: 67; 6HR PCP: 0.01; STATESBORO CLOUDY 56 54 94 W18G28 29.92R SYLVANIA CLOUDY 56 52 85 W14G23 29.90R CLAXTON CLOUDY 55 52 88 W9 29.92R ...CSRA...CENTRAL AND FAR SOUTHEAST GEORGIA... CITY SKY/WX TMP DP RH WIND PRES REMARKS THOMSON CLOUDY 52 45 78 W9G18 29.94R AUGUSTA-BUSH CLOUDY 53 42 66 W12 29.88R 6HR MIN TEMP: 53; 6HR MAX TEMP: 67; 6HR PCP: TRACE; AUGUSTA-DANIEL CLOUDY 53 42 66 W10G20 29.88R SWAINSBORO MOCLDY 55 52 88 W9G16 29.94R VIDALIA CLOUDY 54 48 82 W5 29.94R EASTMAN FAIR 52 46 79 W8 29.98R HAZLEHURST MOCLDY 55 51 86 W6 29.95R ALMA CLOUDY 54 46 74 W13 29.94R 6HR MIN TEMP: 54; 6HR MAX TEMP: 67; 6HR PCP: 0.01; WAYCROSS CLOUDY 58 51 76 NW17 29.95R JESUP CLOUDY 59 54 82 NW3 29.93R BAXLEY CLOUDY 55 48 76 W9 29.94R BRUNSWICK CLOUDY 63 57 82 W15 29.91R SAINT SIMONS CLOUDY 63 57 81 W13G24 29.89R 6HR MIN TEMP: 63; 6HR MAX TEMP: 67; 6HR PCP: TRACE; $$ SCZ027-028-034-036>038-045-046-048>050-GAZ119-141-250700- ...LAKE AND SUPPLEMENTAL COASTAL OBSERVATIONS... STATION/POSITION TIME TEMP WIND PRES WAVE SWELL AIR SEA DIR/SP/G HT/PER HT/PER/DIR (UTC) (F) (DEG/KT/KT) (MB) (FT/S) (FT/S/D) UPR LAKE MARION NOT AVBL WINYAH BAY 0600 66 240/ 9 1008.0S LAKE MURRAY 0600 54 250/ 13/ 19 1008.8R ACE BASIN NERRS NOT AVBL FORT PULASKI 0600 62 56 270/ 16/ 19 1011.3R SAPELO ISLAND 0600 63 270/ 16 1012.0R $$ ANZ835-935-AMZ111-154-330-350-352-354-370-450-454-472-250700- ...C-MAN AND BUOY OBSERVATIONS... STATION/POSITION TIME TEMP WIND PRES WAVE SWELL AIR SEA DIR/SP/G HT/PER HT/PER/DIR (UTC) (F) (DEG/KT/KT) (MB) (FT/S) (FT/S/D) BUOY 41004 0600 71 73 250/ 25/ 31 1008.2S 7/ 7 5/ 7 BUOY 41008 0600 62 59 250/ 16/ 17 1011.1R 4/ 7 FOLLY BEACH CMAN 0600 58 230/ 8/ 10 1009.7F CAPERS NEARSHORE 0500 59 240/ 16/ 17 N/A FRIPP NEARSHORE NOT AVBL STATION/POSITION TIME TEMP WIND PRES WAVE SWELL AIR SEA DIR/SP/G HT/PER HT/PER/DIR (UTC) (F) (DEG/KT/KT) (MB) (FT/S) (FT/S/D) 5E ST. MARYS GA 0600 61 N/A 4/ 6 FRYING PAN BUOY 0600 71 72 240/ 23/ 29 1008.5R 7/ 8 5/180/ 8 BUOY 41025 0600 75 1006.4F 9/ 8 CAPE LOOKOUT NC 0600 65 200/ 15/ 19 1007.3S BUOY 41002 0517 75 72 200/ 19/ 25 1013.5F 7/ 7 2/ 80/11 BUOY 41010 0600 78 76 200/ 21/ 25 1013.3S 7/ 6 2/150/10 ST AUGUSTINE FL 0600 63 260/ 12/ 16 1014.2R $$

USA.gov is the U.S. government's official web portal to all federal, state and local government web resources and services.